Location: Arbon
(43.0005°N, 0.7472°E)
Time: 11:44:25
(UTC+00:00)

SL-4 R/B - Pass Details

Date: 22 April 2026
Orbit: 380 x 506 km, 51.6° (Epoch: 13 May)

Event Time Altitude Azimuth Distance (km) Brightness Sun altitude
Rises 19:51:35 0° 202° (SSW) 2,519 5.3 -11.5°
Reaches altitude 10° 19:53:59 10° 188° (S) 1,664 4.3 -11.9°
Maximum altitude 19:57:03 24° 134° (SE) 1,068 2.9 -12.4°
Enters shadow 19:58:27 19° 102° (ESE) 1,226 3.2 -12.6°
